Location: Amsterdam
(30.7274°N, 84.4357°W)
Time: 20:16:44
(UTC+00:00)

Injun/Solrad 3 - Pass Details

Date: 21 February 2026
Orbit: 872 x 984 km, 66.8° (Epoch: 8 March)

Event Time Altitude Azimuth Distance (km) Brightness Sun altitude
Rises 01:37:10 0° 335° (NNW) 3,600 11.3 -28.1°
Reaches altitude 10° 01:39:40 10° 336° (NNW) 2,669 10.6 -28.6°
Enters shadow 01:45:37 81° 355° (N) 977 7.9 -29.9°
Maximum altitude 01:45:56 87° 66° (ENE) 970 - -29.9°
Drops below altitude 10° 01:52:19 10° 156° (SSE) 2,717 - -31.3°
Sets 01:54:54 0° 156° (SSE) 3,668 - -31.8°
